User: anonymous   Login
Location: Unspecified
(0.0000°N, 0.0000°E)
Time: 15:05:11
(UTC+00:00)
Language:

LAPAN A3 - Orbit

View from above orbital plane
View from above orbital plane
View from above satellite
View from above satellite

Ground track
Ground track

The orbit data is extracted from the following two-line orbital elements,

1 41603U 16040E   19078.85217291  .00000049  00000-0  54713-5 0  9993
2 41603  97.3729 139.7492 0013713   5.2669 120.4672 15.19678072151949
Epoch (UTC): 19 March 2019 20:27:07
Eccentricity: 0.0013713
inclination: 97.3729°
perigee height: 497 km
apogee height: 516 km
right ascension of ascending node: 139.7492°
argument of perigee: 5.2669°
revolutions per day: 15.19678072
mean anomaly at epoch: 120.4672°
orbit number at epoch: 15194

The dashed part of the orbit path shows where the satellite is in the earth's shadow,  

DLR